User: anonymous   Login
Location: Unspecified
(0.0000°N, 0.0000°E)
Time: 00:04:50
(UTC+00:00)
Language:

FORTE - Orbit

View from above orbital plane
View from above orbital plane
View from above satellite
View from above satellite

Ground track
Ground track

The orbit data is extracted from the following two-line orbital elements,

1 24920U 97047A   17172.56158491 +.00000018 +00000-0 +31334-4 0  9998
2 24920 069.9528 213.8268 0020240 061.7755 298.5407 14.26243066030469
Epoch (UTC): 21 June 2017 13:28:40
Eccentricity: 0.0020240
inclination: 69.9528°
perigee height: 790 km
apogee height: 819 km
right ascension of ascending node: 213.8268°
argument of perigee: 61.7755°
revolutions per day: 14.26243066
mean anomaly at epoch: 298.5407°
orbit number at epoch: 3046

The dashed part of the orbit path shows where the satellite is in the earth's shadow,  

DLR